Hourly Data Report for October 18, 2016

All times are specified in Local Standard Time (LST). Add 1 hour to adjust for Daylight Saving Time where and when it is observed.

KITCHENER/WATERLOO
ONTARIO

43°27'39.000" N
80°22'43.000" W
321.60 m
6144239
71368
YKF

Download Data

Hourly Data (October 2016)
Hourly Data Report for October 18, 2016
Temp Definition
°C
Dew Point Temp Definition
°C
Rel Hum Definition
%
Wind Dir Definition
10's deg

Wind Spd Definition
km/h
Visibility Definition
km
Stn Press Definition
kPa
Hmdx Definition


Wind Chill Definition


Weather Definition


TIME
00:00 Legend Double Dagger 20.3 15.2 72 19 26 16.1 96.74     LegendNANA
01:00 Legend Double Dagger 20.0 15.1 73 20 28 16.1 96.72     LegendNANA
02:00 Legend Double Dagger 20.0 15.1 73 20 26 16.1 96.70     LegendNANA
03:00 Legend Double Dagger 19.9 15.6 76 20 24 16.1 96.62     LegendNANA
04:00 Legend Double Dagger 19.6 15.7 78 20 28 16.1 96.60     LegendNANA
05:00 Legend Double Dagger 19.6 15.7 78 20 24 16.1 96.58     LegendNANA
06:00 Legend Double Dagger 19.7 15.8 78 21 30 16.1 96.55     LegendNANA
07:00 Legend Double Dagger 19.7 16.0 79 21 24 16.1 96.56     LegendNANA
08:00 Legend Double Dagger 20.1 16.0 77 21 26 16.1 96.56 25   LegendNANA
09:00 Legend Double Dagger 20.5 16.3 77 21 26 16.1 96.53 25   LegendNANA
10:00 Legend Double Dagger 21.9 16.7 72 22 34 16.1 96.51 27   LegendNANA
11:00 Legend Double Dagger 22.8 17.0 69 22 30 16.1 96.46 28   LegendNANA
12:00 Legend Double Dagger 22.8 17.0 69 22 26 16.1 96.46 28   LegendNANA
13:00 Legend Double Dagger 23.0 16.8 68 23 35 16.1 96.46 28   LegendNANA
14:00 Legend Double Dagger 22.0 17.0 73 23 34 16.1 96.55 27   LegendNANA
15:00 Legend Double Dagger 21.7 17.3 76 21 18 16.1 96.59 27   LegendNANA
16:00 Legend Double Dagger 22.7 17.6 73 21 22 16.1 96.60 28   LegendNANA
17:00 Legend Double Dagger 21.5 17.4 77 21 22 16.1 96.64 27   LegendNANA
18:00 Legend Double Dagger 19.2 16.6 85 30 26 16.1 96.82     Rain
19:00 Legend Double Dagger 16.7 14.4 86 30 17 16.1 96.93     LegendNANA
20:00 Legend Double Dagger 14.3 12.0 86 31 13 16.1 97.04     LegendNANA
21:00 Legend Double Dagger 13.0 11.4 90 31 11 16.1 97.13     LegendNANA
22:00 Legend Double Dagger 12.6 11.5 93 31 8 16.1 97.25     LegendNANA
23:00 Legend Double Dagger 11.9 11.0 94 29 8 16.1 97.33     LegendNANA

Notes on Data Quality.

Legend

  • E = Estimated
  • M = Missing
  • NA = Not Available
  • ‡ = Partner data that is not subject to review by the National Climate Archives
Date modified: